Location: Caoba
(9.7667°N, 67.4833°W)
Time: 19:12:21
(UTC+00:00)

GOES 2 Rocket - Pass Details

Date: 10 December 2024
Orbit: 569 x 1662 km, 28.4° (Epoch: 14 January)

Event Time Altitude Azimuth Distance (km) Brightness Sun altitude
Rises 02:01:56 0° 255° (WSW) 4,423 8.0 -53.9°
Reaches altitude 10° 02:05:25 10° 261° (W) 3,278 7.1 -54.6°
Enters shadow 02:06:20 13° 263° (W) 2,977 6.8 -54.8°
